Flag for China Weather past 2 weeks in Lanzhou, Gansu, China

Now
79 °F

Scattered clouds.


Feels Like: 78 °F
Forecast: 55 / 74 °F
Wind: 10 mph from Northeast

Location: Lanzhou / Zhongchuan

Current Time: Jul 7, 2015 at 6:07:24 PM

Latest Report: Jul 7, 2015 at 5:00 PM


Visibility: N/A

Pressure: 29.95 "Hg (25.11 "Hg at 1543m altitude)

Humidity: 28%

Dew point: 43 °F

Location of LanzhouLocation

Historic Weather in Lanzhou — Graph

°F

Lanzhou temperature yesterday

Maximum temperature yesterday: 82 °F (at 5:00 PM)
Minimum temperature yesterday: 48 °F (at 5:00 AM)
Average temperature yesterday: 65 °F

Past Weeks' High & Low Weather Summary

 TemperatureHumidityPressure
High86 °F (Jun 26, 5:00 PM)100% (Jun 23, 4:00 AM)30.15 "Hg (Jun 23, 4:00 AM)
Low48 °F (Jul 6, 5:00 AM)26% (Jul 6, 5:00 PM)29.59 "Hg (Jun 26, 4:00 PM)
Average65 °F73%29.95 "Hg
* Reported Jun 22 5:00 PM — Jul 7 5:00 PM, Lanzhou, Weather by CustomWeather, © 2015

Note: Actual official high and low records may vary slightly from our data, if they occured in-between our weather recording intervals... More about our weather records

Advertising

Lanzhou weather history for previous 24 hours

 ConditionsComfort  
Time TempWeatherWind HumidityBarometerVisibility
5:00 PM
Tue, Jul 7
79 °FScattered clouds.10 mph28%29.95 "HgN/A
4:00 PM81 °FScattered clouds.10 mph30%29.95 "HgN/A
3:00 PM81 °FScattered clouds.13 mph28%29.98 "HgN/A
2:00 PM81 °FScattered clouds.3 mph32%29.98 "HgN/A
1:00 PM79 °FScattered clouds.6 mph34%30.01 "HgN/A
12:00 PM79 °FPassing clouds.3 mph37%30.01 "HgN/A
11:00 AM75 °FSunny.3 mph47%30.04 "Hg10 mi
10:00 AM72 °FSunny.1 mph53%30.04 "Hg10 mi
9:00 AM68 °FSunny.1 mph60%30.04 "Hg10 mi
8:00 AM63 °FPassing clouds.3 mph68%30.01 "HgN/A
7:00 AM57 °FSunny.3 mph77%30.01 "Hg10 mi
6:00 AM54 °FPassing clouds.3 mph88%29.98 "HgN/A
5:00 AM55 °FClear.3 mph82%29.98 "Hg10 mi
4:00 AM55 °FClear.6 mph82%29.98 "Hg10 mi
3:00 AM57 °FClear.3 mph77%29.98 "Hg10 mi
2:00 AM57 °FClear.6 mph82%29.98 "Hg10 mi
1:00 AM63 °FClear.3 mph68%29.98 "Hg10 mi
12:00 AM64 °FClear.3 mph64%29.95 "Hg10 mi
11:00 PM
Mon, Jul 6
66 °FClear.8 mph60%29.95 "Hg10 mi
10:00 PM70 °FPassing clouds.6 mph57%29.95 "HgN/A
9:00 PM70 °FPassing clouds.3 mph64%29.92 "HgN/A
8:00 PM73 °FPassing clouds.3 mph57%29.89 "HgN/A
7:00 PM81 °FPassing clouds.3 mph32%29.89 "HgN/A
6:00 PM81 °FPassing clouds.6 mph30%29.89 "HgN/A
Weather by CustomWeather, © 2015

See weather overviewHow to use our weather pages